Погода в Кирилловке

Россия / Брянская область     52°06′31″N   32°09′52″E
темп.,
°C
ветер,
м/с
пор.,
м/с
влажн.,
%
обл.,
%
осадки,
мм/ч
давл.,
гПа
погр.,
м
9 мая, вс
вс900:00+4сз61481100 0.1 1014686
03:00+2зсз514871 0.1 1016401
06:00+1зсз512890 0.0 1018355
09:00+6сз610685 0.0 10201016
12:00+10сз7104842 0.0 10202097
15:00+11сз794295 0.0 10222548
18:00+11ссз57525 0.0 10232125
21:00+6сз33620 0.0 102528
10 мая, пн
пн1000:00+4ссз22665 0.0 102711
03:00+3сз12675 0.0 102810
06:00+3ссв11680 0.0 102810
09:00+10ссв11542 0.0 1029351
12:00+13ссв33433 0.0 10281373
15:00+15ссв34423 0.0 10271523
18:00+14ссв34530 0.0 10261343
21:00+9св33690 0.0 102728
11 мая, вт
вт1100:00+6св35730 0.0 102778
03:00+5ссв47760 0.0 1026105
06:00+5ссв513757 0.0 1026287
09:00+9ссв61169100 0.0 1025386
12:00+15св69638 0.0 1023676
15:00+19всв8106229 0.0 10211304
18:00+17всв6107496 0.3 10211057
21:00+11в389210 0.5 1022170
12 мая, ср
ср1200:00+8в310935 0.0 1022202
03:00+7всв389195 0.0 1021159
06:00+8всв51286100 0.0 1020446
09:00+10в71480100 0.1 10191356
12:00+11в61275100 0.1 10181453
15:00+10в71183100 2.0 1017964
18:00+9вюв5109194 1.3 1016773
21:00+9в5119063 3.2 1014814
13 мая, чт
чт1300:00+8вюв5119344 0.3 1013372
03:00+6юв5129522 0.6 1014356
06:00+6юв410965 0.0 1015282
09:00+11ююв58781 0.0 1015614
12:00+13ююв5772100 0.0 1015991
15:00+17ююв6962100 0.0 10141560
18:00+16юв5976100 0.2 1013406
21:00+13в4119091 0.5 1012259